Home > Weather > Deggendorf > Past weeks

Flag for Germany Past Weather in Deggendorf, Bavaria, Germany — Yesterday and Last 2 Weeks

Now
74 °F

Scattered clouds.


Feels Like: 77 °F
Forecast: 57 / 77 °F
Wind: 5 mph from West

Location: Straubing

Current Time: Jun 29, 2016 at 2:49:29 PM

Latest Report: Jun 29, 2016 at 1:00 PM


Visibility: 31 mi

Pressure: 29.96 "Hg

Humidity: 58%

Dew Point: 58 °F

Location of DeggendorfLocation

Past Weather in Deggendorf — Graph

°F

Deggendorf Temperature Yesterday

Maximum temperature yesterday: 75 °F (at 6:00 PM)
Minimum temperature yesterday: 56 °F (at 6:00 AM)
Average temperature yesterday: 66 °F

High & Low Weather Summary for the Past Weeks

 TemperatureHumidityPressure
High88 °F (Jun 24, 6:00 PM)100% (Jun 16, 7:00 PM)30.27 "Hg (Jun 16, 7:00 PM)
Low48 °F (Jun 18, 6:00 AM)38% (Jun 24, 6:00 PM)29.50 "Hg (Jun 14, 6:00 PM)
Average65 °F77%29.99 "Hg
* Reported Jun 14 1:00 PM — Jun 29 1:00 PM, Deggendorf, Weather by CustomWeather, © 2016

Note: Actual official high and low records may vary slightly from our data, if they occured in-between our weather recording intervals... More about our weather records

Advertising

Deggendorf Weather History for the Previous 24 Hours

Scroll right to see more
 ConditionsComfort  
Time TempWeatherWind HumidityBarometerVisibility
1:00 PM
Wed, Jun 29
74 °FScattered clouds.5 mph58%29.96 "Hg31 mi
12:00 PM75 °FPassing clouds.5 mph54%29.96 "Hg43 mi
10:00 AM71 °FPassing clouds.3 mph70%29.97 "Hg22 mi
9:00 AM69 °FPassing clouds.2 mph72%29.98 "Hg19 mi
7:00 AM60 °FOvercast.1 mph92%29.99 "Hg11 mi
6:00 AM60 °FOvercast.2 mph92%29.97 "Hg11 mi
4:00 AM59 °FOvercast.2 mph91%29.96 "Hg15 mi
3:00 AM59 °FOvercast.2 mph89%29.96 "Hg14 mi
1:00 AM62 °FOvercast.2 mph85%29.97 "Hg19 mi
12:00 AM62 °FOvercast.1 mph88%29.98 "Hg22 mi
10:00 PM
Tue, Jun 28
68 °FOvercast.1 mph74%29.98 "Hg12 mi
9:00 PM68 °FPartly sunny.2 mph76%29.97 "Hg31 mi
7:00 PM74 °FSunny.1 mph50%29.97 "Hg43 mi
6:00 PM75 °FPartly sunny.1 mph43%29.98 "Hg43 mi
4:00 PM73 °FPassing clouds.2 mph54%30.01 "Hg31 mi
3:00 PM73 °FScattered clouds.2 mph56%30.02 "Hg28 mi
Weather by CustomWeather, © 2016

See weather overviewHow to use our weather pages